This is the latest recevied weather packets stored in our database for station/object K7NDG. If no packets are shown the sender has not sent any weather packets the latest 1 day(s).
| Time | Temp. | Humidity | Pressure | Rain* | Wind** | Luminosity | Snow |
|---|---|---|---|---|---|---|---|
| 1778021003 | 17.78° C | 71% | 1017.3 hPa | 0 mm | 1.79 m/s, 264° | 242 W/m² | - |
| 1778020700 | 17.78° C | 69% | 1017.3 hPa | 0 mm | 1.34 m/s, 116° | 252 W/m² | - |
| 1778020397 | 17.78° C | 69% | 1017.2 hPa | 0 mm | 0.89 m/s, 251° | 270 W/m² | - |
| 1778020093 | 17.78° C | 71% | 1017.2 hPa | 0 mm | 0 m/s | 257 W/m² | - |
| 1778019789 | 17.78° C | 72% | 1017.3 hPa | 0 mm | 0 m/s | 250 W/m² | - |
| 1778019486 | 17.22° C | 71% | 1017.1 hPa | 0 mm | 1.34 m/s, 224° | 247 W/m² | - |
| 1778019183 | 17.22° C | 70% | 1017.3 hPa | 0 mm | 1.34 m/s, 241° | 245 W/m² | - |
| 1778018880 | 17.22° C | 71% | 1017.3 hPa | 0 mm | 0 m/s | 248 W/m² | - |
| 1778018577 | 17.22° C | 72% | 1017.3 hPa | 0 mm | 0.89 m/s, 267° | 218 W/m² | - |
| 1778018275 | 17.22° C | 72% | 1017.3 hPa | 0 mm | 0 m/s | 228 W/m² | - |
| 1778017973 | 17.22° C | 71% | 1017.3 hPa | 0 mm | 2.24 m/s, 280° | 232 W/m² | - |
| 1778017670 | 17.22° C | 72% | 1017.4 hPa | 0 mm | 1.34 m/s, 263° | 215 W/m² | - |
| 1778017368 | 17.22° C | 72% | 1017.4 hPa | 0 mm | 0.89 m/s, 271° | 218 W/m² | - |
| 1778017065 | 16.67° C | 72% | 1017.7 hPa | 0 mm | 0.45 m/s, 178° | 235 W/m² | - |
| 1778016762 | 17.22° C | 71% | 1017.6 hPa | 0 mm | 1.34 m/s, 275° | 220 W/m² | - |
| 1778016458 | 17.22° C | 72% | 1017.7 hPa | 0 mm | 0 m/s | 219 W/m² | - |
| 1778016156 | 17.22° C | 72% | 1017.5 hPa | 0 mm | 0 m/s | 231 W/m² | - |
| 1778015852 | 17.22° C | 72% | 1017.5 hPa | 0 mm | 0 m/s | 242 W/m² | - |
| 1778015550 | 17.22° C | 73% | 1017.4 hPa | 0 mm | 1.34 m/s, 269° | 272 W/m² | - |
| 1778015246 | 17.22° C | 72% | 1017.5 hPa | 0 mm | 1.34 m/s, 261° | 261 W/m² | - |
| 1778014943 | 16.67° C | 73% | 1017.5 hPa | 0 mm | 1.34 m/s, 264° | 243 W/m² | - |
| 1778014640 | 16.67° C | 72% | 1017.6 hPa | 0 mm | 0 m/s | 235 W/m² | - |
| 1778014338 | 16.67° C | 74% | 1017.5 hPa | 0 mm | 0.45 m/s, 246° | 229 W/m² | - |
| 1778014034 | 16.67° C | 75% | 1017.5 hPa | 0 mm | 1.34 m/s, 266° | 226 W/m² | - |
| 1778013733 | 16.11° C | 75% | 1017.7 hPa | 0 mm | 0 m/s | 199 W/m² | - |
* Rain latest hour (hover to see other rain measurements)
** Current wind speed in m/s (hover to see current wind gust speed)